Voltar ao catálogo

STARLINK-4060

AtivoComunicaçõesVLEO
NORAD 53267·PAYLOAD·🇺🇸 United States

Lançado Jul 24, 2022 de Cape Canaveral Space Force Station

Loading…

Próximas Passagens (próximas 24 horas)

TLE

AtualizadoSource: CelesTrak SupGP

Época: Sep 15, 2026, 01:50 UTC

1 53267C 22086AB  26258.07687500 -.00046219  00000+0 -13657-2 0  2582
2 53267  53.1598  50.7345 0001109  78.1836 139.6416 15.34410511    10

Acompanhe STARLINK-4060 em tempo real com AllMySat

Download on the App Store